Location: Silverdale
(47.6506°N, 122.6941°W)
Time: 03:58:35
(UTC+00:00)

Altair - Pass Details

Date: 05 October 2022
Orbit: 1501 x 1682 km, 47.2° (Epoch: 05 December)

Event Time Altitude Azimuth Distance (km) Brightness Sun altitude
Rises 15:38:43 0° 272° (W) 4,825 9.5 12.7°
Reaches altitude 10° 15:41:47 10° 272° (W) 3,861 9.1 13.2°
Maximum altitude 15:51:46 88° 185° (S) 1,671 8.0 14.7°
Drops below altitude 10° 16:01:59 10° 97° (E) 3,945 11.3 16.2°
Sets 16:05:09 0° 98° (E) 4,933 11.5 16.7°
